Location: Cucq
(50.4773°N, 1.6202°E)
Time: 05:37:44
(UTC+00:00)

Cosmos 2297 Rocket - Pass Details

Date: 07 August 2020
Orbit: 838 x 845 km, 71.0° (Epoch: 19 September)

Event Time Altitude Azimuth Distance (km) Brightness Sun altitude
Exits shadow 00:46:07 24° 130° (SE) 1,691 3.5 -22.4°
Maximum altitude 00:47:41 27° 104° (ESE) 1,566 3.5 -22.3°
Drops below altitude 10° 00:52:20 10° 48° (NE) 2,466 5.4 -22.2°
Sets 00:55:06 0° 37° (NE) 3,407 6.5 -22.1°
